Year,Month,Day,Hour,Minute,Value (Times are PST for temperature in C)
2009,04,04,00,00,1.70
2009,04,04,00,01,1.70
2009,04,04,00,02,1.70
2009,04,04,00,03,1.70
2009,04,04,00,04,1.70
2009,04,04,00,05,1.70
2009,04,04,00,06,1.70
2009,04,04,00,07,1.60
2009,04,04,00,08,1.60
2009,04,04,00,09,1.60
2009,04,04,00,10,1.50
2009,04,04,00,11,1.50
2009,04,04,00,12,1.40
2009,04,04,00,13,1.40
2009,04,04,00,14,1.40
2009,04,04,00,15,1.30
2009,04,04,00,16,1.30
2009,04,04,00,17,1.30
2009,04,04,00,18,1.30
2009,04,04,00,19,1.30
2009,04,04,00,20,1.30
2009,04,04,00,21,1.30
2009,04,04,00,22,1.20
2009,04,04,00,23,1.20
2009,04,04,00,24,1.20
2009,04,04,00,25,1.20
2009,04,04,00,26,1.20
2009,04,04,00,27,1.10
2009,04,04,00,28,1.10
2009,04,04,00,29,1.10
2009,04,04,00,30,1.10
2009,04,04,00,31,1.10
2009,04,04,00,32,1.10
2009,04,04,00,33,1.10
2009,04,04,00,34,1.10
2009,04,04,00,35,1.10
2009,04,04,00,36,1.10
2009,04,04,00,37,1.10
2009,04,04,00,38,1.10
2009,04,04,00,39,1.10
2009,04,04,00,40,1.10
2009,04,04,00,41,1.10
2009,04,04,00,42,1.10
2009,04,04,00,43,1.10
2009,04,04,00,44,1.10
2009,04,04,00,45,1.10
2009,04,04,00,46,1.10
2009,04,04,00,47,1.00
2009,04,04,00,48,1.00
2009,04,04,00,49,1.00
2009,04,04,00,50,1.00
2009,04,04,00,51,1.00
2009,04,04,00,52,0.90
2009,04,04,00,53,0.90
2009,04,04,00,54,0.90
2009,04,04,00,55,0.90
2009,04,04,00,56,0.90
2009,04,04,00,57,0.90
2009,04,04,00,58,0.80
2009,04,04,00,59,0.80
2009,04,04,01,00,0.80
2009,04,04,01,01,0.80
2009,04,04,01,02,0.80
2009,04,04,01,03,0.70
2009,04,04,01,04,0.70
2009,04,04,01,05,0.70
2009,04,04,01,06,0.70
2009,04,04,01,07,0.70
2009,04,04,01,08,0.70
2009,04,04,01,09,0.70
2009,04,04,01,10,0.60
2009,04,04,01,11,0.60
2009,04,04,01,12,0.60
2009,04,04,01,13,0.60
2009,04,04,01,14,0.60
2009,04,04,01,15,0.60
2009,04,04,01,16,0.60
2009,04,04,01,17,0.50
2009,04,04,01,18,0.50
2009,04,04,01,19,0.50
2009,04,04,01,20,0.50
2009,04,04,01,21,0.50
2009,04,04,01,22,0.50
2009,04,04,01,23,0.50
2009,04,04,01,24,0.50
2009,04,04,01,25,0.50
2009,04,04,01,26,0.50
2009,04,04,01,27,0.40
2009,04,04,01,28,0.40
2009,04,04,01,29,0.40
2009,04,04,01,30,0.40
2009,04,04,01,31,0.40
2009,04,04,01,32,0.40
2009,04,04,01,33,0.40
2009,04,04,01,34,0.30
2009,04,04,01,35,0.30
2009,04,04,01,36,0.30
2009,04,04,01,37,0.30
2009,04,04,01,38,0.30
2009,04,04,01,39,0.30
2009,04,04,01,40,0.30
2009,04,04,01,41,0.30
2009,04,04,01,42,0.30
2009,04,04,01,43,0.20
2009,04,04,01,44,0.20
2009,04,04,01,45,0.20
2009,04,04,01,46,0.20
2009,04,04,01,47,0.20
2009,04,04,01,48,0.20
2009,04,04,01,49,0.20
2009,04,04,01,50,0.20
2009,04,04,01,51,0.10
2009,04,04,01,52,0.10
2009,04,04,01,53,0.10
2009,04,04,01,54,0.10
2009,04,04,01,55,0.10
2009,04,04,01,56,0.00
2009,04,04,01,57,0.00
2009,04,04,01,58,0.00
2009,04,04,01,59,0.00
2009,04,04,02,00,0.00
2009,04,04,02,01,0.00
2009,04,04,02,02,0.00
2009,04,04,02,03,0.00
2009,04,04,02,04,0.00
2009,04,04,02,05,0.00
2009,04,04,02,06,0.00
2009,04,04,02,07,0.00
2009,04,04,02,08,0.00
2009,04,04,02,09,0.00
2009,04,04,02,10,0.00
2009,04,04,02,11,0.00
2009,04,04,02,12,0.00
2009,04,04,02,13,0.00
2009,04,04,02,14,0.00
2009,04,04,02,15,0.00
2009,04,04,02,16,0.00
2009,04,04,02,17,0.00
2009,04,04,02,18,0.00
2009,04,04,02,19,0.00
2009,04,04,02,20,0.00
2009,04,04,02,21,0.00
2009,04,04,02,22,-0.10
2009,04,04,02,23,-0.10
2009,04,04,02,24,-0.10
2009,04,04,02,25,-0.10
2009,04,04,02,26,-0.10
2009,04,04,02,27,-0.20
2009,04,04,02,28,-0.20
2009,04,04,02,29,-0.20
2009,04,04,02,30,-0.20
2009,04,04,02,31,-0.20
2009,04,04,02,32,-0.30
2009,04,04,02,33,-0.30
2009,04,04,02,34,-0.30
2009,04,04,02,35,-0.30
2009,04,04,02,36,-0.30
2009,04,04,02,37,-0.30
2009,04,04,02,38,-0.30
2009,04,04,02,39,-0.30
2009,04,04,02,40,-0.30
2009,04,04,02,41,-0.30
2009,04,04,02,42,-0.30
2009,04,04,02,43,-0.30
2009,04,04,02,44,-0.30
2009,04,04,02,45,-0.30
2009,04,04,02,46,-0.30
2009,04,04,02,47,-0.30
2009,04,04,02,48,-0.30
2009,04,04,02,49,-0.30
2009,04,04,02,50,-0.40
2009,04,04,02,51,-0.40
2009,04,04,02,52,-0.40
2009,04,04,02,53,-0.40
2009,04,04,02,54,-0.50
2009,04,04,02,55,-0.50
2009,04,04,02,56,-0.50
2009,04,04,02,57,-0.60
2009,04,04,02,58,-0.60
2009,04,04,02,59,-0.60
2009,04,04,03,00,-0.60
2009,04,04,03,01,-0.60
2009,04,04,03,02,-0.60
2009,04,04,03,03,-0.70
2009,04,04,03,04,-0.70
2009,04,04,03,05,-0.70
2009,04,04,03,06,-0.70
2009,04,04,03,07,-0.70
2009,04,04,03,08,-0.70
2009,04,04,03,09,-0.70
2009,04,04,03,10,-0.70
2009,04,04,03,11,-0.70
2009,04,04,03,12,-0.70
2009,04,04,03,13,-0.70
2009,04,04,03,14,-0.70
2009,04,04,03,15,-0.70
2009,04,04,03,16,-0.70
2009,04,04,03,17,-0.70
2009,04,04,03,18,-0.70
2009,04,04,03,19,-0.70
2009,04,04,03,20,-0.70
2009,04,04,03,21,-0.70
2009,04,04,03,22,-0.70
2009,04,04,03,23,-0.70
2009,04,04,03,24,-0.70
2009,04,04,03,25,-0.80
2009,04,04,03,26,-0.80
2009,04,04,03,27,-0.80
2009,04,04,03,28,-0.80
2009,04,04,03,29,-0.90
2009,04,04,03,30,-0.90
2009,04,04,03,31,-0.90
2009,04,04,03,32,-1.00
2009,04,04,03,33,-1.00
2009,04,04,03,34,-1.00
2009,04,04,03,35,-1.00
2009,04,04,03,36,-1.00
2009,04,04,03,37,-0.90
2009,04,04,03,38,-0.90
2009,04,04,03,39,-0.90
2009,04,04,03,40,-0.90
2009,04,04,03,41,-0.90
2009,04,04,03,42,-0.90
2009,04,04,03,43,-0.90
2009,04,04,03,44,-0.80
2009,04,04,03,45,-0.80
2009,04,04,03,46,-0.80
2009,04,04,03,47,-0.80
2009,04,04,03,48,-0.80
2009,04,04,03,49,-0.80
2009,04,04,03,50,-0.80
2009,04,04,03,51,-0.90
2009,04,04,03,52,-0.90
2009,04,04,03,53,-0.90
2009,04,04,03,54,-0.90
2009,04,04,03,55,-0.90
2009,04,04,03,56,-0.90
2009,04,04,03,57,-0.90
2009,04,04,03,58,-0.90
2009,04,04,03,59,-0.90
2009,04,04,04,00,-0.90
2009,04,04,04,01,-0.90
2009,04,04,04,02,-0.90
2009,04,04,04,03,-0.90
2009,04,04,04,04,-0.90
2009,04,04,04,05,-0.90
2009,04,04,04,06,-0.90
2009,04,04,04,07,-0.90
2009,04,04,04,08,-0.90
2009,04,04,04,09,-0.90
2009,04,04,04,10,-0.90
2009,04,04,04,11,-0.90
2009,04,04,04,12,-0.90
2009,04,04,04,13,-0.90
2009,04,04,04,14,-0.90
2009,04,04,04,15,-0.90
2009,04,04,04,16,-1.00
2009,04,04,04,17,-1.00
2009,04,04,04,18,-1.00
2009,04,04,04,19,-1.00
2009,04,04,04,20,-1.10
2009,04,04,04,21,-1.10
2009,04,04,04,22,-1.10
2009,04,04,04,23,-1.10
2009,04,04,04,24,-1.10
2009,04,04,04,25,-1.10
2009,04,04,04,26,-1.10
2009,04,04,04,27,-1.10
2009,04,04,04,28,-1.10
2009,04,04,04,29,-1.20
2009,04,04,04,30,-1.20
2009,04,04,04,31,-1.20
2009,04,04,04,32,-1.20
2009,04,04,04,33,-1.20
2009,04,04,04,34,-1.30
2009,04,04,04,35,-1.30
2009,04,04,04,36,-1.30
2009,04,04,04,37,-1.30
2009,04,04,04,38,-1.30
2009,04,04,04,39,-1.30
2009,04,04,04,40,-1.30
2009,04,04,04,41,-1.40
2009,04,04,04,42,-1.40
2009,04,04,04,43,-1.40
2009,04,04,04,44,-1.40
2009,04,04,04,45,-1.30
2009,04,04,04,46,-1.30
2009,04,04,04,47,-1.30
2009,04,04,04,48,-1.30
2009,04,04,04,49,-1.30
2009,04,04,04,50,-1.30
2009,04,04,04,51,-1.30
2009,04,04,04,52,-1.30
2009,04,04,04,53,-1.30
2009,04,04,04,54,-1.30
2009,04,04,04,55,-1.30
2009,04,04,04,56,-1.30
2009,04,04,04,57,-1.30
2009,04,04,04,58,-1.30
2009,04,04,04,59,-1.30
2009,04,04,05,00,-1.30
2009,04,04,05,01,-1.30
2009,04,04,05,02,-1.30
2009,04,04,05,03,-1.30
2009,04,04,05,04,-1.30
2009,04,04,05,05,-1.30
2009,04,04,05,06,-1.30
2009,04,04,05,07,-1.30
2009,04,04,05,08,-1.30
2009,04,04,05,09,-1.30
2009,04,04,05,10,-1.30
2009,04,04,05,11,-1.30
2009,04,04,05,12,-1.30
2009,04,04,05,13,-1.30
2009,04,04,05,14,-1.40
2009,04,04,05,15,-1.40
2009,04,04,05,16,-1.40
2009,04,04,05,17,-1.40
2009,04,04,05,18,-1.40
2009,04,04,05,19,-1.40
2009,04,04,05,20,-1.40
2009,04,04,05,21,-1.40
2009,04,04,05,22,-1.40
2009,04,04,05,23,-1.50
2009,04,04,05,24,-1.50
2009,04,04,05,25,-1.50
2009,04,04,05,26,-1.50
2009,04,04,05,27,-1.50
2009,04,04,05,28,-1.60
2009,04,04,05,29,-1.60
2009,04,04,05,30,-1.60
2009,04,04,05,31,-1.60
2009,04,04,05,32,-1.60
2009,04,04,05,33,-1.60
2009,04,04,05,34,-1.60
2009,04,04,05,35,-1.60
2009,04,04,05,36,-1.60
2009,04,04,05,37,-1.60
2009,04,04,05,38,-1.60
2009,04,04,05,39,-1.60
2009,04,04,05,40,-1.60
2009,04,04,05,41,-1.60
2009,04,04,05,42,-1.60
2009,04,04,05,43,-1.60
2009,04,04,05,44,-1.60
2009,04,04,05,45,-1.60
2009,04,04,05,46,-1.60
2009,04,04,05,47,-1.60
2009,04,04,05,48,-1.60
2009,04,04,05,49,-1.60
2009,04,04,05,50,-1.60
2009,04,04,05,51,-1.60
2009,04,04,05,52,-1.60
2009,04,04,05,53,-1.60
2009,04,04,05,54,-1.70
2009,04,04,05,55,-1.70
2009,04,04,05,56,-1.70
2009,04,04,05,57,-1.70
2009,04,04,05,58,-1.70
2009,04,04,05,59,-1.70
2009,04,04,06,00,-1.70
2009,04,04,06,01,-1.70
2009,04,04,06,02,-1.70
2009,04,04,06,03,-1.70
2009,04,04,06,04,-1.80
2009,04,04,06,05,-1.80
2009,04,04,06,06,-1.80
2009,04,04,06,07,-1.80
2009,04,04,06,08,-1.80
2009,04,04,06,09,-1.80
2009,04,04,06,10,-1.80
2009,04,04,06,11,-1.80
2009,04,04,06,12,-1.80
2009,04,04,06,13,-1.80
2009,04,04,06,14,-1.80
2009,04,04,06,15,-1.80
2009,04,04,06,16,-1.80
2009,04,04,06,17,-1.80
2009,04,04,06,18,-1.80
2009,04,04,06,19,-1.80
2009,04,04,06,20,-1.80
2009,04,04,06,21,-1.80
2009,04,04,06,22,-1.80
2009,04,04,06,23,-1.80
2009,04,04,06,24,-1.80
2009,04,04,06,25,-1.90
2009,04,04,06,26,-1.90
2009,04,04,06,27,-1.90
2009,04,04,06,28,-1.90
2009,04,04,06,29,-1.90
2009,04,04,06,30,-1.90
2009,04,04,06,31,-1.80
2009,04,04,06,32,-1.80
2009,04,04,06,33,-1.80
2009,04,04,06,34,-1.80
2009,04,04,06,35,-1.80
2009,04,04,06,36,-1.80
2009,04,04,06,37,-1.80
2009,04,04,06,38,-1.80
2009,04,04,06,39,-1.80
2009,04,04,06,40,-1.80
2009,04,04,06,41,-1.80
2009,04,04,06,42,-1.80
2009,04,04,06,43,-1.80
2009,04,04,06,44,-1.80
2009,04,04,06,45,-1.80
2009,04,04,06,46,-1.80
2009,04,04,06,47,-1.80
2009,04,04,06,48,-1.80
2009,04,04,06,49,-1.80
2009,04,04,06,50,-1.80
2009,04,04,06,51,-1.80
2009,04,04,06,52,-1.80
2009,04,04,06,53,-1.80
2009,04,04,06,54,-1.80
2009,04,04,06,55,-1.80
2009,04,04,06,56,-1.80
2009,04,04,06,57,-1.80
2009,04,04,06,58,-1.80
2009,04,04,06,59,-1.80
2009,04,04,07,00,-1.80
2009,04,04,07,01,-1.80
2009,04,04,07,02,-1.80
2009,04,04,07,03,-1.80
2009,04,04,07,04,-1.80
2009,04,04,07,05,-1.80
2009,04,04,07,06,-1.80
2009,04,04,07,07,-1.80
2009,04,04,07,08,-1.80
2009,04,04,07,09,-1.80
2009,04,04,07,10,-1.80
2009,04,04,07,11,-1.80
2009,04,04,07,12,-1.80
2009,04,04,07,13,-1.80
2009,04,04,07,14,-1.80
2009,04,04,07,15,-1.80
2009,04,04,07,16,-1.80
2009,04,04,07,17,-1.80
2009,04,04,07,18,-1.80
2009,04,04,07,19,-1.80
2009,04,04,07,20,-1.70
2009,04,04,07,21,-1.70
2009,04,04,07,22,-1.70
2009,04,04,07,23,-1.70
2009,04,04,07,24,-1.70
2009,04,04,07,25,-1.60
2009,04,04,07,26,-1.60
2009,04,04,07,27,-1.60
2009,04,04,07,28,-1.60
2009,04,04,07,29,-1.50
2009,04,04,07,30,-1.50
2009,04,04,07,31,-1.50
2009,04,04,07,32,-1.40
2009,04,04,07,33,-1.40
2009,04,04,07,34,-1.40
2009,04,04,07,35,-1.40
2009,04,04,07,36,-1.30
2009,04,04,07,37,-1.30
2009,04,04,07,38,-1.30
2009,04,04,07,39,-1.30
2009,04,04,07,40,-1.20
2009,04,04,07,41,-1.20
2009,04,04,07,42,-1.10
2009,04,04,07,43,-1.00
2009,04,04,07,44,-1.00
2009,04,04,07,45,-0.90
2009,04,04,07,46,-0.90
2009,04,04,07,47,-0.90
2009,04,04,07,48,-0.80
2009,04,04,07,49,-0.80
2009,04,04,07,50,-0.80
2009,04,04,07,51,-0.70
2009,04,04,07,52,-0.70
2009,04,04,07,53,-0.70
2009,04,04,07,54,-0.60
2009,04,04,07,55,-0.60
2009,04,04,07,56,-0.60
2009,04,04,07,57,-0.50
2009,04,04,07,58,-0.50
2009,04,04,07,59,-0.40
2009,04,04,08,00,-0.40
2009,04,04,08,01,-0.30
2009,04,04,08,02,-0.30
2009,04,04,08,03,-0.30
2009,04,04,08,04,-0.20
2009,04,04,08,05,-0.20
2009,04,04,08,06,-0.20
2009,04,04,08,07,-0.20
2009,04,04,08,08,-0.20
2009,04,04,08,09,-0.10
2009,04,04,08,10,-0.10
2009,04,04,08,11,-0.10
2009,04,04,08,12,-0.10
2009,04,04,08,13,-0.10
2009,04,04,08,14,0.00
2009,04,04,08,15,0.00
2009,04,04,08,16,0.10
2009,04,04,08,17,0.10
2009,04,04,08,18,0.10
2009,04,04,08,19,0.10
2009,04,04,08,20,0.20
2009,04,04,08,21,0.20
2009,04,04,08,22,0.20
2009,04,04,08,23,0.20
2009,04,04,08,24,0.20
2009,04,04,08,25,0.30
2009,04,04,08,26,0.30
2009,04,04,08,27,0.30
2009,04,04,08,28,0.30
2009,04,04,08,29,0.30
2009,04,04,08,30,0.40
2009,04,04,08,31,0.40
2009,04,04,08,32,0.50
2009,04,04,08,33,0.50
2009,04,04,08,34,0.60
2009,04,04,08,35,0.70
2009,04,04,08,36,0.70
2009,04,04,08,37,0.80
2009,04,04,08,38,0.80
2009,04,04,08,39,0.80
2009,04,04,08,40,0.80
2009,04,04,08,41,0.80
2009,04,04,08,42,0.80
2009,04,04,08,43,0.80
2009,04,04,08,44,0.80
2009,04,04,08,45,0.90
2009,04,04,08,46,0.90
2009,04,04,08,47,1.00
2009,04,04,08,48,1.00
2009,04,04,08,49,1.10
2009,04,04,08,50,1.10
2009,04,04,08,51,1.10
2009,04,04,08,52,1.20
2009,04,04,08,53,1.20
2009,04,04,08,54,1.20
2009,04,04,08,55,1.20
2009,04,04,08,56,1.20
2009,04,04,08,57,1.20
2009,04,04,08,58,1.30
2009,04,04,08,59,1.30
2009,04,04,09,00,1.30
2009,04,04,09,01,1.40
2009,04,04,09,02,1.50
2009,04,04,09,03,1.60
2009,04,04,09,04,1.60
2009,04,04,09,05,1.70
2009,04,04,09,06,1.80
2009,04,04,09,07,1.80
2009,04,04,09,08,1.80
2009,04,04,09,09,1.80
2009,04,04,09,10,1.90
2009,04,04,09,11,2.00
2009,04,04,09,12,2.10
2009,04,04,09,13,2.20
2009,04,04,09,14,2.30
2009,04,04,09,15,2.40
2009,04,04,09,16,2.40
2009,04,04,09,17,2.40
2009,04,04,09,18,2.40
2009,04,04,09,19,2.40
2009,04,04,09,20,2.50
2009,04,04,09,21,2.60
2009,04,04,09,22,2.70
2009,04,04,09,23,2.70
2009,04,04,09,24,2.70
2009,04,04,09,25,2.70
2009,04,04,09,26,2.80
2009,04,04,09,27,2.80
2009,04,04,09,28,2.80
2009,04,04,09,29,2.80
2009,04,04,09,30,2.90
2009,04,04,09,31,3.00
2009,04,04,09,32,3.10
2009,04,04,09,33,3.10
2009,04,04,09,34,3.20
2009,04,04,09,35,3.30
2009,04,04,09,36,3.30
2009,04,04,09,37,3.40
2009,04,04,09,38,3.40
2009,04,04,09,39,3.40
2009,04,04,09,40,3.50
2009,04,04,09,41,3.50
2009,04,04,09,42,3.60
2009,04,04,09,43,3.60
2009,04,04,09,44,3.60
2009,04,04,09,45,3.70
2009,04,04,09,46,3.70
2009,04,04,09,47,3.80
2009,04,04,09,48,3.90
2009,04,04,09,49,3.90
2009,04,04,09,50,4.00
2009,04,04,09,51,4.10
2009,04,04,09,52,4.10
2009,04,04,09,53,4.20
2009,04,04,09,54,4.20
2009,04,04,09,55,4.30
2009,04,04,09,56,4.40
2009,04,04,09,57,4.50
2009,04,04,09,58,4.60
2009,04,04,09,59,4.70
2009,04,04,10,00,4.80
2009,04,04,10,01,4.90
2009,04,04,10,02,5.00
2009,04,04,10,03,5.10
2009,04,04,10,04,5.20
2009,04,04,10,05,5.30
2009,04,04,10,06,5.30
2009,04,04,10,07,5.40
2009,04,04,10,08,5.50
2009,04,04,10,09,5.60
2009,04,04,10,10,5.70
2009,04,04,10,11,5.80
2009,04,04,10,12,6.00
2009,04,04,10,13,6.10
2009,04,04,10,14,6.20
2009,04,04,10,15,6.30
2009,04,04,10,16,6.30
2009,04,04,10,17,6.40
2009,04,04,10,18,6.50
2009,04,04,10,19,6.50
2009,04,04,10,20,6.60
2009,04,04,10,21,6.70
2009,04,04,10,22,6.70
2009,04,04,10,23,6.80
2009,04,04,10,24,6.80
2009,04,04,10,25,6.90
2009,04,04,10,26,7.00
2009,04,04,10,27,7.10
2009,04,04,10,28,7.20
2009,04,04,10,29,7.20
2009,04,04,10,30,7.30
2009,04,04,10,31,7.30
2009,04,04,10,32,7.40
2009,04,04,10,33,7.40
2009,04,04,10,34,7.50
2009,04,04,10,35,7.50
2009,04,04,10,36,7.50
2009,04,04,10,37,7.50
2009,04,04,10,38,7.60
2009,04,04,10,39,7.60
2009,04,04,10,40,7.60
2009,04,04,10,41,7.60
2009,04,04,10,42,7.70
2009,04,04,10,43,7.70
2009,04,04,10,44,7.80
2009,04,04,10,45,7.80
2009,04,04,10,46,7.80
2009,04,04,10,47,7.80
2009,04,04,10,48,7.70
2009,04,04,10,49,7.70
2009,04,04,10,50,7.70
2009,04,04,10,51,7.80
2009,04,04,10,52,7.80
2009,04,04,10,53,7.90
2009,04,04,10,54,7.90
2009,04,04,10,55,7.80
2009,04,04,10,56,7.80
2009,04,04,10,57,7.80
2009,04,04,10,58,7.80
2009,04,04,10,59,7.90
2009,04,04,11,00,7.90
2009,04,04,11,01,8.00
2009,04,04,11,02,8.00
2009,04,04,11,03,8.10
2009,04,04,11,04,8.10
2009,04,04,11,05,8.10
2009,04,04,11,06,8.10
2009,04,04,11,07,8.20
2009,04,04,11,08,8.20
2009,04,04,11,09,8.30
2009,04,04,11,10,8.30
2009,04,04,11,11,8.30
2009,04,04,11,12,8.30
2009,04,04,11,13,8.40
2009,04,04,11,14,8.40
2009,04,04,11,15,8.40
2009,04,04,11,16,8.40
2009,04,04,11,17,8.50
2009,04,04,11,18,8.60
2009,04,04,11,19,8.60
2009,04,04,11,20,8.60
2009,04,04,11,21,8.60
2009,04,04,11,22,8.60
2009,04,04,11,23,8.60
2009,04,04,11,24,8.60
2009,04,04,11,25,8.60
2009,04,04,11,26,8.70
2009,04,04,11,27,8.70
2009,04,04,11,28,8.70
2009,04,04,11,29,8.70
2009,04,04,11,30,8.70
2009,04,04,11,31,8.70
2009,04,04,11,32,8.60
2009,04,04,11,33,8.70
2009,04,04,11,34,8.70
2009,04,04,11,35,8.80
2009,04,04,11,36,8.90
2009,04,04,11,37,8.90
2009,04,04,11,38,8.90
2009,04,04,11,39,9.00
2009,04,04,11,40,9.10
2009,04,04,11,41,9.10
2009,04,04,11,42,9.10
2009,04,04,11,43,9.20
2009,04,04,11,44,9.20
2009,04,04,11,45,9.20
2009,04,04,11,46,9.20
2009,04,04,11,47,9.20
2009,04,04,11,48,9.30
2009,04,04,11,49,9.30
2009,04,04,11,50,9.30
2009,04,04,11,51,9.30
2009,04,04,11,52,9.20
2009,04,04,11,53,9.20
2009,04,04,11,54,9.10
2009,04,04,11,55,9.10
2009,04,04,11,56,9.20
2009,04,04,11,57,9.20
2009,04,04,11,58,9.10
2009,04,04,11,59,9.10
2009,04,04,12,00,9.10
2009,04,04,12,01,9.20
2009,04,04,12,02,9.20
2009,04,04,12,03,9.20
2009,04,04,12,04,9.30
2009,04,04,12,05,9.40
2009,04,04,12,06,9.30
2009,04,04,12,07,9.30
2009,04,04,12,08,9.40
2009,04,04,12,09,9.50
2009,04,04,12,10,9.50
2009,04,04,12,11,9.60
2009,04,04,12,12,9.60
2009,04,04,12,13,9.60
2009,04,04,12,14,9.60
2009,04,04,12,15,9.80
2009,04,04,12,16,9.90
2009,04,04,12,17,10.10
2009,04,04,12,18,10.20
2009,04,04,12,19,10.20
2009,04,04,12,20,10.20
2009,04,04,12,21,10.20
2009,04,04,12,22,10.30
2009,04,04,12,23,10.30
2009,04,04,12,24,10.30
2009,04,04,12,25,10.40
2009,04,04,12,26,10.40
2009,04,04,12,27,10.40
2009,04,04,12,28,10.30
2009,04,04,12,29,10.20
2009,04,04,12,30,10.20
2009,04,04,12,31,10.10
2009,04,04,12,32,10.10
2009,04,04,12,33,10.20
2009,04,04,12,34,10.30
2009,04,04,12,35,10.30
2009,04,04,12,36,10.20
2009,04,04,12,37,10.10
2009,04,04,12,38,10.00
2009,04,04,12,39,10.10
2009,04,04,12,40,10.20
2009,04,04,12,41,10.30
2009,04,04,12,42,10.30
2009,04,04,12,43,10.40
2009,04,04,12,44,10.40
2009,04,04,12,45,10.40
2009,04,04,12,46,10.30
2009,04,04,12,47,10.20
2009,04,04,12,48,10.20
2009,04,04,12,49,10.20
2009,04,04,12,50,10.30
2009,04,04,12,51,10.40
2009,04,04,12,52,10.50
2009,04,04,12,53,10.60
2009,04,04,12,54,10.70
2009,04,04,12,55,10.70
2009,04,04,12,56,10.70
2009,04,04,12,57,10.70
2009,04,04,12,58,10.60
2009,04,04,12,59,10.50
2009,04,04,13,00,10.50
2009,04,04,13,01,10.60
2009,04,04,13,02,10.70
2009,04,04,13,03,10.80
2009,04,04,13,04,10.90
2009,04,04,13,05,11.00
2009,04,04,13,06,11.10
2009,04,04,13,07,11.20
2009,04,04,13,08,11.20
2009,04,04,13,09,11.10
2009,04,04,13,10,11.00
2009,04,04,13,11,11.00
2009,04,04,13,12,10.90
2009,04,04,13,13,10.90
2009,04,04,13,14,10.80
2009,04,04,13,15,10.90
2009,04,04,13,16,10.90
2009,04,04,13,17,10.80
2009,04,04,13,18,10.80
2009,04,04,13,19,10.80
2009,04,04,13,20,10.80
2009,04,04,13,21,10.80
2009,04,04,13,22,10.80
2009,04,04,13,23,10.70
2009,04,04,13,24,10.70
2009,04,04,13,25,10.80
2009,04,04,13,26,10.80
2009,04,04,13,27,10.90
2009,04,04,13,28,10.80
2009,04,04,13,29,10.90
2009,04,04,13,30,10.80
2009,04,04,13,31,10.80
2009,04,04,13,32,10.80
2009,04,04,13,33,10.90
2009,04,04,13,34,10.90
2009,04,04,13,35,10.90
2009,04,04,13,36,10.90
2009,04,04,13,37,11.00
2009,04,04,13,38,11.00
2009,04,04,13,39,11.10
2009,04,04,13,40,11.00
2009,04,04,13,41,11.00
2009,04,04,13,42,11.00
2009,04,04,13,43,10.90
2009,04,04,13,44,10.80
2009,04,04,13,45,10.80
2009,04,04,13,46,10.80
2009,04,04,13,47,10.70
2009,04,04,13,48,10.80
2009,04,04,13,49,10.80
2009,04,04,13,50,10.70
2009,04,04,13,51,10.70
2009,04,04,13,52,10.80
2009,04,04,13,53,10.80
2009,04,04,13,54,10.90
2009,04,04,13,55,11.10
2009,04,04,13,56,11.10
2009,04,04,13,57,11.20
2009,04,04,13,58,11.20
2009,04,04,13,59,11.10
2009,04,04,14,00,11.00
2009,04,04,14,01,11.00
2009,04,04,14,02,11.00
2009,04,04,14,03,11.00
2009,04,04,14,04,11.00
2009,04,04,14,05,11.10
2009,04,04,14,06,11.10
2009,04,04,14,07,11.00
2009,04,04,14,08,11.00
2009,04,04,14,09,11.10
2009,04,04,14,10,11.20
2009,04,04,14,11,11.30
2009,04,04,14,12,11.40
2009,04,04,14,13,11.40
2009,04,04,14,14,11.40
2009,04,04,14,15,11.40
2009,04,04,14,16,11.30
2009,04,04,14,17,11.30
2009,04,04,14,18,11.20
2009,04,04,14,19,11.20
2009,04,04,14,20,11.10
2009,04,04,14,21,11.10
2009,04,04,14,22,11.20
2009,04,04,14,23,11.20
2009,04,04,14,24,11.30
2009,04,04,14,25,11.30
2009,04,04,14,26,11.40
2009,04,04,14,27,11.30
2009,04,04,14,28,11.30
2009,04,04,14,29,11.30
2009,04,04,14,30,11.40
2009,04,04,14,31,11.50
2009,04,04,14,32,11.50
2009,04,04,14,33,11.40
2009,04,04,14,34,11.30
2009,04,04,14,35,11.30
2009,04,04,14,36,11.30
2009,04,04,14,37,11.20
2009,04,04,14,38,11.20
2009,04,04,14,39,11.20
2009,04,04,14,40,11.30
2009,04,04,14,41,11.40
2009,04,04,14,42,11.50
2009,04,04,14,43,11.50
2009,04,04,14,44,11.50
2009,04,04,14,45,11.50
2009,04,04,14,46,11.50
2009,04,04,14,47,11.50
2009,04,04,14,48,11.50
2009,04,04,14,49,11.60
2009,04,04,14,50,11.60
2009,04,04,14,51,11.50
2009,04,04,14,52,11.50
2009,04,04,14,53,11.40
2009,04,04,14,54,11.40
2009,04,04,14,55,11.50
2009,04,04,14,56,11.50
2009,04,04,14,57,11.50
2009,04,04,14,58,11.60
2009,04,04,14,59,11.60
2009,04,04,15,00,11.60
2009,04,04,15,01,11.70
2009,04,04,15,02,11.70
2009,04,04,15,03,11.80
2009,04,04,15,04,11.80
2009,04,04,15,05,11.90
2009,04,04,15,06,11.80
2009,04,04,15,07,11.80
2009,04,04,15,08,11.70
2009,04,04,15,09,11.70
2009,04,04,15,10,11.70
2009,04,04,15,11,11.70
2009,04,04,15,12,11.70
2009,04,04,15,13,11.70
2009,04,04,15,14,11.80
2009,04,04,15,15,11.80
2009,04,04,15,16,11.80
2009,04,04,15,17,11.80
2009,04,04,15,18,11.80
2009,04,04,15,19,11.90
2009,04,04,15,20,11.90
2009,04,04,15,21,11.90
2009,04,04,15,22,11.90
2009,04,04,15,23,11.90
2009,04,04,15,24,11.80
2009,04,04,15,25,11.70
2009,04,04,15,26,11.70
2009,04,04,15,27,11.60
2009,04,04,15,28,11.70
2009,04,04,15,29,11.70
2009,04,04,15,30,11.70
2009,04,04,15,31,11.70
2009,04,04,15,32,11.80
2009,04,04,15,33,11.90
2009,04,04,15,34,11.90
2009,04,04,15,35,11.90
2009,04,04,15,36,12.00
2009,04,04,15,37,12.00
2009,04,04,15,38,12.10
2009,04,04,15,39,12.00
2009,04,04,15,40,12.00
2009,04,04,15,41,12.10
2009,04,04,15,42,12.20
2009,04,04,15,43,12.30
2009,04,04,15,44,12.30
2009,04,04,15,45,12.40
2009,04,04,15,46,12.50
2009,04,04,15,47,12.60
2009,04,04,15,48,12.50
2009,04,04,15,49,12.50
2009,04,04,15,50,12.40
2009,04,04,15,51,12.40
2009,04,04,15,52,12.50
2009,04,04,15,53,12.50
2009,04,04,15,54,12.50
2009,04,04,15,55,12.30
2009,04,04,15,56,12.30
2009,04,04,15,57,12.20
2009,04,04,15,58,12.20
2009,04,04,15,59,12.30
2009,04,04,16,00,12.30
2009,04,04,16,01,12.30
2009,04,04,16,02,12.40
2009,04,04,16,03,12.40
2009,04,04,16,04,12.50
2009,04,04,16,05,12.50
2009,04,04,16,06,12.40
2009,04,04,16,07,12.40
2009,04,04,16,08,12.40
2009,04,04,16,09,12.40
2009,04,04,16,10,12.50
2009,04,04,16,11,12.60
2009,04,04,16,12,12.70
2009,04,04,16,13,12.60
2009,04,04,16,14,12.50
2009,04,04,16,15,12.40
2009,04,04,16,16,12.30
2009,04,04,16,17,12.20
2009,04,04,16,18,12.10
2009,04,04,16,19,12.10
2009,04,04,16,20,12.10
2009,04,04,16,21,12.10
2009,04,04,16,22,12.10
2009,04,04,16,23,12.20
2009,04,04,16,24,12.10
2009,04,04,16,25,12.10
2009,04,04,16,26,12.10
2009,04,04,16,27,12.10
2009,04,04,16,28,12.20
2009,04,04,16,29,12.30
2009,04,04,16,30,12.40
2009,04,04,16,31,12.40
2009,04,04,16,32,12.40
2009,04,04,16,33,12.30
2009,04,04,16,34,12.10
2009,04,04,16,35,12.00
2009,04,04,16,36,11.90
2009,04,04,16,37,11.90
2009,04,04,16,38,11.80
2009,04,04,16,39,11.80
2009,04,04,16,40,11.70
2009,04,04,16,41,11.70
2009,04,04,16,42,11.70
2009,04,04,16,43,11.70
2009,04,04,16,44,11.70
2009,04,04,16,45,11.70
2009,04,04,16,46,11.70
2009,04,04,16,47,11.60
2009,04,04,16,48,11.60
2009,04,04,16,49,11.60
2009,04,04,16,50,11.70
2009,04,04,16,51,11.70
2009,04,04,16,52,11.70
2009,04,04,16,53,11.80
2009,04,04,16,54,11.70
2009,04,04,16,55,11.70
2009,04,04,16,56,11.80
2009,04,04,16,57,11.80
2009,04,04,16,58,11.80
2009,04,04,16,59,11.80
2009,04,04,17,00,11.80
2009,04,04,17,01,11.70
2009,04,04,17,02,11.70
2009,04,04,17,03,11.70
2009,04,04,17,04,11.70
2009,04,04,17,05,11.70
2009,04,04,17,06,11.70
2009,04,04,17,07,11.60
2009,04,04,17,08,11.60
2009,04,04,17,09,11.60
2009,04,04,17,10,11.70
2009,04,04,17,11,11.80
2009,04,04,17,12,11.80
2009,04,04,17,13,11.80
2009,04,04,17,14,11.70
2009,04,04,17,15,11.70
2009,04,04,17,16,11.70
2009,04,04,17,17,11.80
2009,04,04,17,18,11.80
2009,04,04,17,19,11.90
2009,04,04,17,20,11.90
2009,04,04,17,21,11.90
2009,04,04,17,22,11.90
2009,04,04,17,23,11.90
2009,04,04,17,24,11.90
2009,04,04,17,25,11.90
2009,04,04,17,26,11.90
2009,04,04,17,27,11.90
2009,04,04,17,28,11.90
2009,04,04,17,29,11.90
2009,04,04,17,30,11.80
2009,04,04,17,31,11.80
2009,04,04,17,32,11.80
2009,04,04,17,33,11.80
2009,04,04,17,34,11.70
2009,04,04,17,35,11.70
2009,04,04,17,36,11.70